Location: Lamoine Observatory
(44.4551°N, 68.3470°W)
Time: 04:38:15
(UTC-04:00)

Daily predictions for brighter satellites

Satellite Brightness Start Highest point End
(mag) Time Altitude Azimuth Time Altitude Azimuth Time Altitude Azimuth
Cosmos 2263 4.0 00:06:35 76° SE 00:06:48 77° ESE 00:12:28 10° NNE
Lacrosse 5 rocket 2.4 00:08:17 38° N 00:08:17 38° N 00:11:09 10° NE
Genesis I 4.4 00:08:20 41° NW 00:08:20 41° NW 00:12:11 10° NNE
Lacrosse 5 2.3 00:17:36 42° W 00:19:03 58° NW 00:24:06 10° NE
CRYOSAT 2 4.4 00:17:31 10° N 00:22:09 70° ENE 00:22:09 70° ENE
SeaSat 1 4.5 00:21:25 14° E 00:24:11 22° NE 00:27:56 10° N
Cosmos 1346 Rocket 3.8 00:20:52 10° NNW 00:23:36 43° NNW 00:23:36 43° NNW
Cosmos 1833 4.0 00:21:46 10° NNW 00:27:26 84° ENE 00:27:50 77° SE
Helios 1A Rocket 3.8 00:23:40 10° NNE 00:26:45 44° NE 00:26:45 44° NE
CZ-4B R/B 3.7 00:31:00 21° NNW 00:31:00 21° NNW 00:32:13 10° NNW
Cosmos 44 Rocket 3.7 00:25:37 10° NNW 00:30:42 58° NE 00:31:11 55° ENE
NOSS 3-1 (A) 4.4 00:27:56 10° NW 00:35:06 45° WSW 00:36:15 42° SW
Landsat 5 4.3 00:36:44 47° NW 00:36:44 47° NW 00:40:03 10° NNW
CZ-2C R/B 3.2 00:39:55 57° E 00:40:08 58° ENE 00:44:56 10° N
GP-B 3.4 00:36:07 10° N 00:39:57 65° N 00:39:57 65° N
Cosmos 968 Rocket 3.4 00:37:38 10° NNW 00:42:54 80° ENE 00:42:59 80° E
Cosmos 2369 Rocket 3.1 00:42:13 33° W 00:43:58 42° WNW 00:49:18 10° NNE
BREEZE-M DEB (TANK) 3.9 00:32:36 10° WNW 00:44:53 59° N 00:47:50 17° E
H-2A R/B 3.4 00:43:51 10° N 00:48:06 44° WNW 00:48:06 44° WNW
CZ-2C R/B 2.4 00:46:29 10° NNE 00:51:45 86° ESE 00:51:53 84° SSE
Cosmos 1743 4.1 00:53:33 35° NE 00:53:33 35° NE 00:56:08 10° NNE
SL-24 DEB 4.4 00:48:13 10° N 00:52:43 68° ENE 00:52:43 68° ENE
Cosmos 1975 3.9 00:54:23 42° NW 00:54:23 42° NW 00:57:30 10° N
Cosmos 2100 Rocket 4.0 00:52:43 61° SW 00:53:47 75° W 01:00:12 10° N
Cosmos 2219 3.2 00:48:32 10° NNW 00:54:11 72° ENE 00:54:56 63° ESE
Cosmos 1953 Rocket 4.3 00:51:28 10° N 00:55:16 46° ENE 00:55:16 46° ENE
MOS 1-B Rocket 4.3 00:55:20 50° WSW 00:56:04 53° W 01:02:43 10° NNW
Cosmos 1340 4.5 00:53:13 10° NNE 00:56:01 26° ENE 00:56:01 26° ENE
Cosmos 2227 Rocket 4.1 00:52:00 10° N 00:56:40 25° NE 01:01:13 10° ESE
Cosmos 1066 Rocket 3.9 00:51:18 10° NNW 00:56:41 84° W 00:56:49 83° SW
ATLAS 2AS CENTAUR R/B 2.9 00:48:35 10° NW 00:56:42 75° WSW 00:58:45 53° S
USA 234 4.4 00:58:38 10° NE 01:04:38 40° NNW 01:10:38 10° W
Cosmos 1726 Rocket 4.3 01:05:56 45° ENE 01:05:56 45° ENE 01:09:28 10° NNE
Cosmos 1825 Rocket 3.8 01:01:40 10° N 01:05:35 67° N 01:05:35 67° N
Cosmos 44 3.9 01:01:23 10° NNW 01:06:33 55° NE 01:07:34 46° E
Cosmos 1818 4.0 01:06:45 48° W 01:07:48 56° NW 01:13:13 10° NNE
Cosmos 2061 Rocket 4.2 01:08:13 53° SW 01:09:26 63° W 01:15:49 10° N
Cosmos 1842 4.5 01:06:07 10° N 01:09:22 38° NE 01:09:22 38° NE
Cosmos 1459 Rocket 4.1 01:09:16 53° WSW 01:10:15 59° WNW 01:16:15 10° N
Cosmos 1656 Rocket 3.6 01:10:24 71° SE 01:10:42 73° ESE 01:16:20 10° NNE
Cosmos 1241 Rocket 4.5 01:05:13 10° NW 01:11:37 63° WSW 01:12:10 60° SW
Cosmos 2016 Rocket 3.8 01:11:31 66° SSW 01:12:24 79° W 01:18:32 10° N
Cosmos 2098 Rocket 4.3 01:14:01 54° SSE 01:15:43 74° E 01:23:19 10° N
Cosmos 2297 Rocket 4.1 01:13:19 10° N 01:18:02 26° NE 01:22:44 10° ESE
Cosmos 1758 Rocket 3.8 01:15:07 10° N 01:19:16 70° NE 01:19:16 70° NE
Cosmos 1666 4.0 01:20:39 36° NE 01:20:39 36° NE 01:23:20 10° NNE
Cosmos 1943 Rocket 2.7 01:18:38 43° W 01:19:44 49° WNW 01:25:12 10° NNE
Cosmos 1802 Rocket 4.2 01:19:15 51° WSW 01:20:21 59° WNW 01:26:34 10° N
Cosmos 1777 Rocket 3.9 01:20:31 10° NNW 01:25:40 73° W 01:25:40 73° W
Cosmos 2208 Rocket 4.1 01:29:39 60° ESE 01:29:51 61° ESE 01:35:02 10° NNE
ISS -0.5 01:29:36 10° NW 01:34:59 13° ENE 01:35:25 10° ENE
Cosmos 1864 Rocket 4.4 01:31:42 61° SSW 01:32:53 83° W 01:39:09 10° N
Uosat 12 SS-18 rocket 4.4 01:36:46 10° NNW 01:41:25 79° NE 01:42:15 61° ESE
Lacrosse 5 rocket 4.0 01:45:29 10° NW 01:47:36 14° NNW 01:49:42 10° NNE
Cosmos 1725 Rocket 4.1 01:47:31 52° SW 01:48:45 63° W 01:54:55 10° N
Cosmos 1816 Rocket 4.5 01:44:51 10° NNW 01:51:07 73° W 01:52:30 55° SSW
Cosmos 2228 3.0 01:52:06 79° NE 01:52:06 79° NE 01:56:12 10° N
ERS-2 4.3 01:56:03 10° NE 01:58:37 17° E 01:58:57 17° E
Tsikada Rocket 4.3 01:53:55 10° NNW 01:59:57 49° W 02:01:06 44° WSW
SeaSat 1 2.3 02:01:12 65° WSW 02:01:19 65° WSW 02:06:14 10° NNW
Lacrosse 5 4.1 01:58:53 10° WNW 02:02:56 23° NNW 02:06:59 10° NE
USA 161 4.4 02:08:52 13° E 02:09:36 13° ENE 02:11:04 10° NE
Abrixas 4.4 02:12:04 28° ENE 02:12:04 28° ENE 02:13:54 10° E
GENESIS II 4.4 02:11:03 68° NW 02:11:03 68° NW 02:15:09 10° NNE
CZ-2D R/B 4.3 02:10:24 10° NE 02:14:05 18° E 02:17:44 10° SE
Cosmos 2150 Rocket 4.2 02:11:34 10° NNW 02:16:48 69° ENE 02:19:10 32° SE
SL-16 R/B 3.9 02:13:15 10° SE 02:18:45 35° ENE 02:24:15 10° N
Cosmos 1707 3.6 02:15:48 10° N 02:19:37 45° ENE 02:20:28 38° ESE
NOSS 3-4 (A) 4.1 02:12:48 10° NW 02:19:42 66° NE 02:27:00 10° SE
NOSS 3-4 (C) 4.1 02:12:54 10° NNW 02:19:50 66° NE 02:27:10 10° SE
AQUA 4.0 02:19:47 10° NNE 02:24:31 63° E 02:25:42 47° SSE
Cosmos 1898 Rocket 3.5 02:19:35 10° NNW 02:24:58 82° ENE 02:27:20 35° SSE
Cosmos 1812 Rocket 3.5 02:25:54 65° S 02:26:32 86° E 02:31:02 10° N
PSLV R/B 4.1 02:22:23 10° N 02:26:40 48° WNW 02:27:12 45° W
Cosmos 972 Rocket 4.0 02:22:35 10° NNW 02:27:27 59° WSW 02:28:11 53° SW
Cosmos 2058 Rocket 4.3 02:27:44 29° WNW 02:27:56 29° WNW 02:31:50 10° NNW
Cosmos 1697 Rocket 3.9 02:26:52 24° SSE 02:29:17 33° ESE 02:34:18 10° NE
Cosmos 2082 3.6 02:25:13 10° NNW 02:30:52 75° WSW 02:33:02 39° S
IRS-P3 4.1 02:25:52 10° NNE 02:31:15 81° WNW 02:32:49 47° SSW
Cosmos 1937 Rocket 3.6 02:31:11 10° NNW 02:36:23 75° ENE 02:39:39 23° SSE
Geosat 4.2 02:31:53 10° NE 02:36:53 61° ESE 02:38:28 41° S
Cosmos 1980 Rocket 3.9 02:34:36 15° SE 02:37:52 24° ESE 02:42:18 10° NE
Cosmos 2227 Rocket 2.2 02:35:33 10° NNW 02:41:08 59° WSW 02:42:57 40° SSW
UNK 4.0 02:34:43 10° W 02:41:09 42° NNW 02:43:45 10° ENE
ATLAS 2AS CENTAUR R/B 4.5 02:41:50 10° WNW 02:46:07 16° W 02:46:07 16° W
ATLAS CENTAUR R/B 1.9 02:48:10 44° SSW 02:49:44 72° ESE 02:54:44 10° NE
Meteor 2-5 Rocket 3.8 02:44:17 10° NNW 02:50:07 69° W 02:52:51 33° S
ARIANE 5 R/B 3.2 02:46:40 10° NNE 02:51:38 48° E 02:54:37 23° SSE
Cosmos 1464 Rocket 4.0 02:49:34 35° SSW 02:52:19 70° W 02:58:41 10° N
Resurs 1-4 Rocket 3.2 02:49:03 10° NNE 02:53:58 39° E 02:57:35 17° SSE
ADEOS 3.6 02:49:28 10° NNE 02:54:44 80° ESE 02:57:07 33° S
SL-08 R/B 3.6 02:54:19 42° SW 02:55:06 46° W 02:59:36 10° NNW
Cosmos 2278 4.1 02:58:52 32° WSW 03:01:15 53° WNW 03:06:50 10° NNE
Okean 3 Rocket 3.5 02:57:47 10° NNW 03:02:10 66° W 03:03:33 41° SSW
Cosmos 2297 Rocket 2.3 02:56:55 10° NNW 03:02:26 56° WSW 03:05:19 27° S
Cosmos 2369 3.9 03:00:27 33° SW 03:02:53 58° WNW 03:08:30 10° NNE
NPP 4.0 02:57:55 10° N 03:03:08 51° WNW 03:05:21 32° SW
Cosmos 1092 Rocket 4.4 02:59:16 10° N 03:05:32 65° E 03:11:49 10° SSE
ISS -3.5 03:08:08 39° WNW 03:09:11 72° SSW 03:12:25 10° SE
Spot 4 Rocket 4.0 03:04:28 10° NNE 03:09:41 85° WNW 03:12:20 30° SSW
UNK 4.0 03:06:21 13° SSE 03:10:26 70° ENE 03:15:06 10° N
Cosmos 405 Rocket 3.7 03:10:49 10° NNW 03:14:27 31° W 03:14:45 31° WSW
BREEZE-M DEB (TANK) 2.9 03:12:28 24° WSW 03:15:34 85° NNW 03:18:12 10° ENE
Cosmos 1814 Rocket 4.2 03:16:25 30° SW 03:18:58 59° WNW 03:24:18 10° NNE
OE (NEXTSAT) 4.5 03:18:22 45° SW 03:19:13 63° SSE 03:22:49 10° ENE
IRS-1D 3.5 03:14:45 10° NNE 03:19:44 79° ESE 03:22:56 23° S
Cosmos 1378 3.0 03:16:18 10° N 03:20:06 85° W 03:22:06 27° S
CZ-3A R/B 3.7 03:11:26 22° SW 03:20:20 76° SE 03:25:02 10° NE
BREEZE-M DEB (TANK) 3.6 03:19:22 16° W 03:22:08 50° NNW 03:25:58 10° ENE
SL-16 R/B 4.3 03:18:58 10° SSE 03:23:04 21° E 03:27:11 10° NE
Cosmos 1766 3.2 03:22:22 33° SSW 03:24:05 78° W 03:28:02 10° N
Cosmos 1076 Rocket 3.4 03:23:09 10° NNW 03:27:29 74° W 03:30:20 21° S
Lacrosse 5 rocket 4.1 03:26:29 10° NNW 03:28:10 13° N 03:29:51 10° NE
Meteor 1-24 Rocket 4.0 03:26:49 10° NNW 03:32:21 53° W 03:36:36 18° SSW
ERS-2 3.1 03:29:06 10° N 03:32:31 34° WNW 03:33:47 26° WSW
NOSS 7 (E) 4.5 03:33:25 33° SW 03:34:47 70° NW 03:38:17 10° NNE
Meteor 1-22 Rocket 4.5 03:30:52 22° SSW 03:34:53 65° WNW 03:40:59 10° N
UNKNOWN OBJECT B 3.1 03:33:06 10° NNE 03:37:00 64° E 03:39:50 17° S
GPS 2-04 Rocket1 3.9 03:36:56 23° S 03:37:11 23° S 03:40:18 10° SE
SME Rocket 4.4 03:33:08 15° S 03:37:57 59° W 03:46:36 10° NNW
Cosmos 1743 Rocket 3.9 03:33:40 10° N 03:38:00 64° E 03:42:19 10° SSE
USA 161 2.8 03:40:01 24° W 03:40:01 24° W 03:42:08 10° NW
Cosmos 990 Rocket 4.4 03:35:20 10° NW 03:40:16 42° WSW 03:44:12 15° SSW
Okean O Rocket 2.7 03:41:49 10° NNE 03:46:01 42° E 03:50:12 10° S
Abrixas 2.4 03:44:06 10° WNW 03:47:06 65° SSW 03:50:09 10° SE
Cosmos 1656 4.2 03:43:30 20° SW 03:47:12 47° WNW 03:52:41 10° NNE
Lacrosse 5 4.4 03:43:35 10° NW 03:47:27 21° N 03:51:17 10° ENE
Cosmos 1441 Rocket 3.7 03:45:35 10° NNW 03:49:23 43° W 03:51:59 18° SSW
Cosmos 1758 3.3 03:46:33 17° S 03:49:35 85° W 03:53:37 10° N
EO 1 Del DPAF 3.4 03:47:08 16° S 03:50:03 52° W 03:53:52 10° NNW
Cosmos 2227 4.2 03:45:56 10° NNW 03:51:45 83° WSW 03:57:30 10° SSE
USA 81 4.4 03:46:35 10° S 03:51:48 66° E 03:57:03 10° N
Cosmos 1953 2.3 03:51:08 17° SSW 03:54:10 73° W 03:58:15 10° N
CZ-2D R/B 2.3 03:49:13 10° N 03:54:38 65° WNW 03:59:08 15° SSW
Cosmos 1805 3.2 03:51:47 16° SSW 03:54:51 80° W 03:58:47 10° N
Cosmos-2242 3.0 03:53:00 16° SSW 03:56:22 69° W 04:00:40 10° N
Cosmos 1408 Rocket 4.3 03:55:24 10° NNW 03:59:24 35° W 04:02:31 15° SSW
Cosmos 372 Rocket 4.1 03:56:02 10° NNW 04:01:10 76° ENE 04:06:15 10° SSE
IRS-1C Rocket 4.4 03:56:32 10° NNE 04:01:48 69° ESE 04:07:01 10° S
SL-16 R/B 2.9 03:56:30 10° SSW 04:02:16 41° W 04:08:05 10° NNW
Cosmos 1766 Rocket 4.3 03:58:56 10° NNW 04:02:58 35° W 04:06:21 14° SSW
ADEOS II 4.4 03:59:08 10° NE 04:03:10 22° E 04:07:10 10° SE
MOS 1-B 4.4 03:58:04 10° N 04:03:52 71° WNW 04:09:28 11° SSW
MOZ.5/SAFIR/RUBIN 5/SL-8 3.9 04:02:16 10° SSE 04:06:59 80° ENE 04:11:41 10° N
In-Cosmos 22 4.3 04:03:20 10° NNW 04:08:28 52° W 04:13:34 10° S
Cosmos 1655 Rocket 4.1 04:02:15 10° N 04:08:41 81° W 04:15:05 10° S
Meteor 1-21 Rocket 4.4 04:06:42 10° NNW 04:12:33 62° W 04:18:22 10° S
Cosmos 1544 3.0 04:09:23 10° S 04:13:03 80° W 04:16:43 10° N
Cosmos 1125 Rocket 3.7 04:08:03 10° NNW 04:13:06 51° WSW 04:18:06 10° S
Cosmos 1697 Rocket 3.4 04:08:37 14° WSW 04:13:08 40° WNW 04:18:28 10° NNE
Cosmos 841 Rocket 4.3 04:11:30 14° SW 04:15:41 39° WNW 04:20:38 10° N
GEOS 3 Rocket 4.2 04:13:27 10° S 04:18:12 35° WSW 04:22:56 10° NW
Cosmos 1437 3.5 04:17:24 10° NNW 04:20:30 35° W 04:23:34 10° SSW
Cosmos 1980 Rocket 2.5 04:16:23 12° SW 04:21:28 54° WNW 04:27:02 10° NNE
Cosmos 2360 Rocket 4.2 04:17:53 10° SSE 04:22:20 25° ESE 04:26:49 10° NE
CZ-4B DEB 4.5 04:18:08 10° NNE 04:23:43 73° ESE 04:29:13 10° S
Aureole 1 Rocket 4.3 04:17:46 10° SSW 04:23:43 82° ESE 04:31:29 10° NNE
Cosmos 332 Rocket 3.8 04:19:55 10° SSW 04:24:43 82° WNW 04:29:36 10° NNE
Cosmos 1842 Rocket 3.6 04:21:53 10° SSW 04:26:21 67° W 04:30:50 10° N
CZ-3 R/B 4.1 04:04:24 12° SW 04:26:44 33° S 04:34:27 10° ESE
RESURS DK-1 2.4 04:24:06 10° NW 04:28:11 60° WSW 04:32:15 10° SSE
Milstar 3 Cent rocket 4.0 04:25:03 10° SW 04:29:13 20° S 04:35:11 10° SE
ATLAS CENTAUR R/B 3.5 04:25:21 10° W 04:29:21 23° NW 04:33:18 10° NNE
Cosmos 1674 2.7 04:25:50 10° NNW 04:29:35 63° W 04:33:16 10° S
ARIANE 5 R/B 3.9 04:26:25 10° N 04:30:28 24° WNW 04:34:33 10° WSW
Okean-O 3.8 04:26:53 10° NNE 04:31:08 43° E 04:35:21 10° S
Cosmos 2026 Rocket 4.3 04:25:36 10° NNW 04:31:43 51° W 04:37:43 10° SSW
CZ-2D R/B 4.1 04:28:07 10° N 04:32:13 42° WNW 04:36:23 10° SW
Cosmos 2322 Rocket 2.3 04:27:35 10° SSW 04:33:11 81° ESE 04:38:49 10° NNE
Resurs 1-4 Rocket 3.2 04:29:09 10° N 04:33:40 30° WNW 04:38:09 10° SW
BREEZE-M DEB (TANK) 2.4 04:37:32 10° WNW 04:40:24 88° SSW 04:46:31 10° ESE
Cosmos 1461 3.3 04:37:45 10° NW 04:41:36 38° WSW 04:45:16 10° S
Cosmos 371 Rocket 3.3 04:39:39 10° SSW 04:44:28 79° WNW 04:49:19 10° NNE
